| time (UTC) | temp F | wind direction | speed knots | gust knots | rain 1hr in | rain 24hr in | rain mn in | humidity % | barometer mb |
| 20260903024546 | 78 | 0 | 0.0 | 0.0 | 0.00 | 0.00 | 0.00 | 86 | 1016.7 |
| 20260903023043 | 78 | 0 | 0.0 | 0.0 | 0.00 | 0.00 | 0.00 | 85 | 1016.8 |
| 20260903021553 | 79 | 0 | 0.0 | 0.0 | 0.00 | 0.00 | 0.00 | 84 | 1016.7 |
| 20260903020055 | 80 | 0 | 0.0 | 0.0 | 0.00 | 0.00 | 0.00 | 82 | 1016.7 |
| 20260903014607 | 81 | 0 | 0.0 | 0.0 | 0.00 | 0.00 | 0.00 | 80 | 1016.7 |
| 20260903013102 | 82 | 0 | 0.0 | 0.0 | 0.00 | 0.00 | 0.00 | 79 | 1016.5 |
| 20260903011615 | 83 | 0 | 0.0 | 0.0 | 0.00 | 0.00 | 0.00 | 76 | 1016.3 |
| 20260903010105 | 84 | 0 | 0.0 | 0.0 | 0.00 | 0.00 | 0.00 | 74 | 1016.2 |
| 20260903004546 | 85 | 0 | 0.0 | 0.9 | 0.00 | 0.00 | 0.00 | 71 | 1016.1 |
| 20260903003108 | 86 | 0 | 0.0 | 1.7 | 0.00 | 0.00 | 0.00 | 69 | 1016.0 |
| 20260903001559 | 86 | 254 | 0.9 | 2.6 | 0.00 | 0.00 | 0.00 | 67 | 1016.0 |
| 20260903000054 | 87 | 251 | 0.9 | 3.5 | 0.00 | 0.00 | 0.00 | 66 | 1015.9 |
| 20260902234550 | 88 | 301 | 0.9 | 3.5 | 0.00 | 0.00 | 0.00 | 65 | 1015.9 |
| 20260902233046 | 89 | 225 | 0.9 | 7.8 | 0.00 | 0.00 | 0.00 | 64 | 1015.9 |
| 20260902231550 | 89 | 229 | 0.9 | 7.8 | 0.00 | 0.00 | 0.00 | 63 | 1016.0 |
| 20260902230100 | 90 | 256 | 2.6 | 7.8 | 0.00 | 0.00 | 0.00 | 61 | 1016.0 |
| 20260902224557 | 91 | 297 | 2.6 | 9.6 | 0.00 | 0.00 | 0.00 | 60 | 1016.1 |
| 20260902223047 | 91 | 286 | 2.6 | 7.8 | 0.00 | 0.00 | 0.00 | 60 | 1016.0 |
| 20260902221554 | 92 | 261 | 1.7 | 7.0 | 0.00 | 0.00 | 0.00 | 60 | 1016.0 |
| 20260902220057 | 92 | 206 | 2.6 | 7.0 | 0.00 | 0.00 | 0.00 | 59 | 1016.1 |
| 20260902214555 | 93 | 249 | 2.6 | 7.0 | 0.00 | 0.00 | 0.00 | 59 | 1016.2 |
| 20260902213047 | 93 | 221 | 2.6 | 7.8 | 0.00 | 0.00 | 0.00 | 59 | 1016.2 |
| 20260902211553 | 92 | 218 | 4.3 | 7.8 | 0.00 | 0.00 | 0.00 | 58 | 1016.4 |
| 20260902210054 | 93 | 232 | 2.6 | 7.8 | 0.00 | 0.00 | 0.00 | 56 | 1016.3 |
| 20260902204552 | 93 | 232 | 2.6 | 8.7 | 0.00 | 0.00 | 0.00 | 57 | 1016.5 |
| 20260902203048 | 93 | 261 | 3.5 | 9.6 | 0.00 | 0.00 | 0.00 | 56 | 1016.7 |
| 20260902201600 | 93 | 254 | 2.6 | 8.7 | 0.00 | 0.00 | 0.00 | 55 | 1016.8 |
| 20260902200051 | 93 | 284 | 4.3 | 7.8 | 0.00 | 0.00 | 0.00 | 58 | 1016.9 |
| 20260902194554 | 93 | 229 | 4.3 | 9.6 | 0.00 | 0.00 | 0.00 | 55 | 1017.1 |
| 20260902193047 | 92 | 236 | 3.5 | 8.7 | 0.00 | 0.00 | 0.00 | 57 | 1017.1 |
| 20260902191552 | 94 | 214 | 2.6 | 7.8 | 0.00 | 0.00 | 0.00 | 57 | 1017.4 |
| 20260902190053 | 92 | 236 | 3.5 | 11.3 | 0.00 | 0.00 | 0.00 | 58 | 1017.4 |
| 20260902184553 | 92 | 265 | 2.6 | 8.7 | 0.00 | 0.00 | 0.00 | 59 | 1017.6 |
| 20260902183050 | 93 | 240 | 1.7 | 7.0 | 0.00 | 0.00 | 0.00 | 57 | 1017.8 |
| 20260902181556 | 92 | 200 | 3.5 | 7.8 | 0.00 | 0.00 | 0.00 | 58 | 1017.8 |
| 20260902180057 | 92 | 247 | 3.5 | 9.6 | 0.00 | 0.00 | 0.00 | 58 | 1017.9 |
| 20260902174552 | 92 | 225 | 3.5 | 8.7 | 0.00 | 0.00 | 0.00 | 62 | 1018.2 |
| 20260902173046 | 92 | 189 | 2.6 | 8.7 | 0.00 | 0.00 | 0.00 | 60 | 1018.4 |
| 20260902171557 | 92 | 234 | 2.6 | 7.0 | 0.00 | 0.00 | 0.00 | 63 | 1018.6 |
| 20260902170047 | 91 | 272 | 2.6 | 8.7 | 0.00 | 0.00 | 0.00 | 64 | 1018.6 |
| 20260902164557 | 90 | 242 | 3.5 | 7.0 | 0.00 | 0.00 | 0.00 | 64 | 1018.6 |
| 20260902163053 | 90 | 213 | 1.7 | 7.0 | 0.00 | 0.00 | 0.00 | 64 | 1018.6 |
| 20260902161551 | 89 | 360 | 1.7 | 7.0 | 0.00 | 0.00 | 0.00 | 66 | 1018.7 |
| 20260902160055 | 89 | 261 | 3.5 | 7.0 | 0.00 | 0.00 | 0.00 | 65 | 1018.7 |
| 20260902154559 | 88 | 286 | 1.7 | 6.1 | 0.00 | 0.00 | 0.00 | 67 | 1018.8 |
| 20260902153051 | 88 | 228 | 1.7 | 6.1 | 0.00 | 0.00 | 0.00 | 69 | 1018.8 |
| 20260902151553 | 87 | 183 | 1.7 | 6.1 | 0.00 | 0.00 | 0.00 | 69 | 1018.8 |
| 20260902150046 | 87 | 227 | 2.6 | 6.1 | 0.00 | 0.00 | 0.00 | 68 | 1018.9 |
| 20260902144551 | 86 | 319 | 3.5 | 7.8 | 0.00 | 0.00 | 0.00 | 70 | 1019.0 |
| 20260902143053 | 85 | 0 | 1.7 | 5.2 | 0.00 | 0.00 | 0.00 | 71 | 1019.0 |
| 20260902141547 | 84 | 338 | 0.0 | 3.5 | 0.00 | 0.00 | 0.00 | 76 | 1019.0 |
| 20260902140047 | 82 | 261 | 1.7 | 6.1 | 0.00 | 0.00 | 0.00 | 78 | 1018.9 |
| 20260902134558 | 80 | 225 | 0.9 | 2.6 | 0.00 | 0.00 | 0.00 | 83 | 1018.9 |
| 20260902133050 | 79 | 222 | 0.9 | 2.6 | 0.00 | 0.00 | 0.00 | 85 | 1019.0 |
| 20260902131551 | 77 | 249 | 0.9 | 4.3 | 0.00 | 0.00 | 0.00 | 87 | 1019.0 |
| 20260902130053 | 76 | 190 | 0.0 | 1.7 | 0.00 | 0.00 | 0.00 | 89 | 1019.0 |
| 20260902124553 | 75 | 223 | 0.0 | 2.6 | 0.00 | 0.00 | 0.00 | 91 | 1018.9 |
| 20260902123050 | 74 | 263 | 1.7 | 3.5 | 0.00 | 0.00 | 0.00 | 92 | 1018.8 |
| 20260902121548 | 73 | 0 | 0.0 | 2.6 | 0.00 | 0.00 | 0.00 | 94 | 1018.8 |
| 20260902120057 | 72 | 223 | 0.0 | 1.7 | 0.00 | 0.00 | 0.00 | 95 | 1018.7 |
| 20260902114553 | 71 | 0 | 0.0 | 2.6 | 0.00 | 0.00 | 0.00 | 96 | 1018.5 |
| 20260902113052 | 71 | 0 | 0.0 | 0.0 | 0.00 | 0.00 | 0.00 | 96 | 1018.3 |
| 20260902111547 | 71 | 0 | 0.0 | 0.0 | 0.00 | 0.00 | 0.00 | 95 | 1018.2 |
| 20260902110043 | 71 | 0 | 0.0 | 0.0 | 0.00 | 0.00 | 0.00 | 95 | 1018.2 |
| 20260902104615 | 71 | 0 | 0.0 | 0.0 | 0.00 | 0.00 | 0.00 | 95 | 1018.2 |
| 20260902103054 | 71 | 0 | 0.0 | 0.0 | 0.00 | 0.00 | 0.00 | 94 | 1018.1 |
| 20260902101547 | 71 | 0 | 0.0 | 0.0 | 0.00 | 0.00 | 0.00 | 95 | 1018.1 |
| 20260902100106 | 71 | 0 | 0.0 | 0.0 | 0.00 | 0.00 | 0.00 | 95 | 1018.0 |
| 20260902094553 | 71 | 0 | 0.0 | 0.0 | 0.00 | 0.00 | 0.00 | 94 | 1018.2 |
| 20260902093107 | 71 | 0 | 0.0 | 0.0 | 0.00 | 0.00 | 0.00 | 95 | 1018.1 |
| 20260902091547 | 71 | 0 | 0.0 | 0.0 | 0.00 | 0.00 | 0.00 | 94 | 1017.9 |
| 20260902090100 | 71 | 0 | 0.0 | 0.0 | 0.00 | 0.00 | 0.00 | 93 | 1017.8 |
| 20260902084556 | 72 | 0 | 0.0 | 0.0 | 0.00 | 0.00 | 0.00 | 93 | 1017.7 |
| 20260902083104 | 72 | 0 | 0.0 | 0.0 | 0.00 | 0.00 | 0.00 | 93 | 1017.6 |
| 20260902081607 | 72 | 0 | 0.0 | 0.0 | 0.00 | 0.00 | 0.00 | 92 | 1017.5 |
| 20260902080055 | 73 | 0 | 0.0 | 0.0 | 0.00 | 0.00 | 0.00 | 92 | 1017.4 |
| 20260902074553 | 73 | 0 | 0.0 | 0.0 | 0.00 | 0.00 | 0.00 | 91 | 1017.3 |
| 20260902073053 | 73 | 0 | 0.0 | 0.9 | 0.00 | 0.00 | 0.00 | 91 | 1017.2 |
| 20260902071559 | 73 | 0 | 0.0 | 0.9 | 0.00 | 0.00 | 0.00 | 91 | 1017.2 |
| 20260902070056 | 73 | 0 | 0.0 | 0.0 | 0.00 | 0.00 | 0.00 | 91 | 1017.2 |
| 20260902064604 | 74 | 0 | 0.0 | 0.0 | 0.00 | 0.00 | 0.00 | 91 | 1017.3 |
| 20260902063112 | 74 | 0 | 0.0 | 0.0 | 0.00 | 0.00 | 0.00 | 90 | 1017.3 |
| 20260902060123 | 74 | 0 | 0.0 | 0.0 | 0.00 | 0.00 | 0.00 | 89 | 1017.4 |
| 20260902054552 | 74 | 0 | 0.0 | 0.0 | 0.00 | 0.00 | 0.00 | 89 | 1017.5 |
| 20260902053052 | 75 | 0 | 0.0 | 0.0 | 0.00 | 0.00 | 0.00 | 88 | 1017.4 |
| 20260902051601 | 75 | 0 | 0.0 | 0.0 | 0.00 | 0.00 | 0.00 | 88 | 1017.3 |
| 20260902050059 | 75 | 0 | 0.0 | 0.0 | 0.00 | 0.00 | 0.00 | 88 | 1017.3 |
| 20260902044554 | 75 | 0 | 0.0 | 0.0 | 0.00 | 0.00 | 0.00 | 87 | 1017.4 |
| 20260902043053 | 76 | 0 | 0.0 | 0.0 | 0.00 | 0.00 | 0.00 | 87 | 1017.4 |
| 20260902041549 | 76 | 0 | 0.0 | 0.0 | 0.00 | 0.00 | 0.00 | 86 | 1017.5 |
| 20260902040100 | 77 | 0 | 0.0 | 0.0 | 0.00 | 0.00 | 0.00 | 85 | 1017.6 |
| 20260902034553 | 77 | 0 | 0.0 | 0.0 | 0.00 | 0.00 | 0.00 | 84 | 1017.4 |
| 20260902033053 | 77 | 0 | 0.0 | 0.9 | 0.00 | 0.00 | 0.00 | 83 | 1017.4 |
| 20260902031552 | 77 | 0 | 0.0 | 0.9 | 0.00 | 0.00 | 0.00 | 85 | 1017.4 |
| 20260902030054 | 77 | 0 | 0.0 | 0.0 | 0.00 | 0.00 | 0.00 | 87 | 1017.5 |